{"data":{"norad_id":65948,"epoch":"2026-09-20T21:29:48.932736Z","epoch_age_seconds":109420,"freshness":"FRESH","line1":"1 65948U 25228B   26263.89570524  .00001761  00000+0  26000-3 0  9995","line2":"2 65948  51.8966 212.3607 0001059  82.6948 277.4135 14.79931214 52201","mean_motion":14.79931214,"eccentricity":0.0001059,"inclination_deg":51.8966,"raan_deg":212.3607,"arg_perigee_deg":82.6948,"mean_anomaly_deg":277.4135,"bstar":0.00026,"rev_number":5220,"period_min":97.301819596596,"perigee_km":628.7991540116,"apogee_km":630.28338026858,"semimajor_km":7007.6782671401,"source":"CELESTRAK","updated_at":"2026-09-21T09:00:15.653889Z"}}